Location: 81360 Arifat, France
(43.7204°N, 2.3408°E)
Time: 14:16:04
(UTC+02:00)

GHALIB - Pass Details

Date: 02 June 2022
Orbit: 510 x 523 km, 97.6° (Epoch: 04 July)

Event Time Altitude Azimuth Distance (km) Brightness Sun altitude
Exits shadow 03:20:58 49° 136° (SE) 680 ? -20.8°
Maximum altitude 03:21:48 67° 76° (ENE) 568 ? -20.7°
Drops below altitude 10° 03:25:34 10° 353° (N) 1,760 ? -20.5°
Sets 03:27:41 0° 351° (N) 2,650 ? -20.3°
